Time,TemperatureF,DewpointF,PressureIn,WindDirection,WindDirectionDegrees,WindSpeedMPH,WindSpeedGustMPH,Humidity,HourlyPrecipIn,Conditions,Clouds,dailyrainin,SoftwareType,DateUTC
2013-06-04 00:03:00,67.0,66.0,29.87,SSE,167,0.0,0.0,97,0.01,,,-99.99,,2013-06-04 04:03:00,
2013-06-04 00:13:00,67.0,66.0,29.87,SSE,167,0.0,0.0,97,0.01,,,-99.99,,2013-06-04 04:13:00,
2013-06-04 00:23:00,67.0,66.0,29.88,SSE,167,0.0,0.0,97,0.01,,,-99.99,,2013-06-04 04:23:00,
2013-06-04 00:33:00,67.0,66.0,29.88,SSE,167,0.0,0.0,97,0.01,,,-99.99,,2013-06-04 04:33:00,
2013-06-04 00:42:00,67.0,66.0,29.88,SSE,167,0.0,0.0,97,0.01,,,-99.99,,2013-06-04 04:42:00,
2013-06-04 00:53:00,67.0,66.0,29.88,SSE,167,0.0,0.0,97,0.01,,,-99.99,,2013-06-04 04:53:00,
2013-06-04 01:02:00,67.0,66.0,29.87,SSE,167,0.0,0.0,97,0.00,,,-99.99,,2013-06-04 05:02:00,
2013-06-04 01:12:00,67.0,66.0,29.87,SSE,167,0.0,0.0,97,0.00,,,-99.99,,2013-06-04 05:12:00,
2013-06-04 01:22:00,67.0,66.0,29.88,SSE,167,0.0,0.0,97,0.00,,,-99.99,,2013-06-04 05:22:00,
2013-06-04 01:32:00,67.0,66.0,29.88,SSE,167,0.0,0.0,97,0.00,,,-99.99,,2013-06-04 05:32:00,
2013-06-04 01:42:00,67.0,66.0,29.88,SSE,167,0.0,0.0,97,0.00,,,-99.99,,2013-06-04 05:42:00,
2013-06-04 01:52:00,67.0,66.0,29.88,SSE,167,0.0,0.0,97,0.00,,,-99.99,,2013-06-04 05:52:00,
2013-06-04 02:02:00,67.0,66.0,29.87,SSE,167,0.0,0.0,98,0.00,,,-99.99,,2013-06-04 06:02:00,
2013-06-04 02:12:00,67.0,66.0,29.87,SSE,167,0.0,0.0,98,0.00,,,-99.99,,2013-06-04 06:12:00,
2013-06-04 02:22:00,67.0,66.0,29.87,SSE,167,0.0,0.0,98,0.00,,,-99.99,,2013-06-04 06:22:00,
2013-06-04 02:32:00,67.0,66.0,29.87,SSE,167,0.0,0.0,98,0.00,,,-99.99,,2013-06-04 06:32:00,
2013-06-04 02:42:00,67.0,66.0,29.87,SSE,167,0.0,0.0,98,0.00,,,-99.99,,2013-06-04 06:42:00,
2013-06-04 02:52:00,67.0,66.0,29.87,SSE,167,0.0,0.0,97,0.00,,,-99.99,,2013-06-04 06:52:00,
2013-06-04 03:02:00,67.0,66.0,29.87,SSE,167,0.0,0.0,97,0.00,,,-99.99,,2013-06-04 07:02:00,
2013-06-04 03:12:00,67.0,66.0,29.87,SSE,167,0.0,0.0,97,0.00,,,-99.99,,2013-06-04 07:12:00,
2013-06-04 03:22:00,66.0,65.0,29.86,SSE,167,0.0,0.0,97,0.00,,,-99.99,,2013-06-04 07:22:00,
2013-06-04 03:32:00,66.0,65.0,29.86,SSE,167,0.0,0.0,97,0.00,,,-99.99,,2013-06-04 07:32:00,
2013-06-04 03:42:00,66.0,65.0,29.86,SSE,167,0.0,0.0,97,0.00,,,-99.99,,2013-06-04 07:42:00,
2013-06-04 03:52:00,66.0,65.0,29.86,WNW,292,0.0,0.0,97,0.00,,,-99.99,,2013-06-04 07:52:00,
2013-06-04 04:02:00,66.0,65.0,29.87,WNW,292,0.0,0.0,97,0.00,,,-99.99,,2013-06-04 08:02:00,
2013-06-04 04:12:00,66.0,65.0,29.87,WNW,292,0.0,0.0,97,0.00,,,-99.99,,2013-06-04 08:12:00,
2013-06-04 04:22:00,66.0,65.0,29.86,WNW,292,0.0,0.0,97,0.00,,,-99.99,,2013-06-04 08:22:00,
2013-06-04 04:32:00,65.0,64.0,29.86,WNW,292,0.0,0.0,97,0.00,,,-99.99,,2013-06-04 08:32:00,
2013-06-04 04:42:00,65.0,64.0,29.86,WNW,292,0.0,0.0,97,0.00,,,-99.99,,2013-06-04 08:42:00,
2013-06-04 04:52:00,65.0,64.0,29.87,WNW,292,0.0,0.0,97,0.00,,,-99.99,,2013-06-04 08:52:00,
2013-06-04 05:02:00,65.0,64.0,29.88,WNW,292,0.0,0.0,97,0.00,,,-99.99,,2013-06-04 09:02:00,
2013-06-04 05:12:00,65.0,64.0,29.88,WNW,292,0.0,0.0,97,0.00,,,-99.99,,2013-06-04 09:12:00,
2013-06-04 05:22:00,65.0,64.0,29.88,WNW,292,0.0,0.0,97,0.00,,,-99.99,,2013-06-04 09:22:00,
2013-06-04 05:33:00,65.0,64.0,29.88,WNW,292,0.0,0.0,97,0.00,,,-99.99,,2013-06-04 09:33:00,
2013-06-04 05:43:00,65.0,64.0,29.88,WNW,292,0.0,0.0,97,0.00,,,-99.99,,2013-06-04 09:43:00,
2013-06-04 05:53:00,65.0,64.0,29.88,WNW,292,0.0,0.0,98,0.00,,,-99.99,,2013-06-04 09:53:00,
2013-06-04 06:02:00,64.0,63.0,29.88,WNW,292,0.0,0.0,98,0.00,,,-99.99,,2013-06-04 10:02:00,
2013-06-04 06:12:00,64.0,63.0,29.88,WNW,292,0.0,0.0,98,0.00,,,-99.99,,2013-06-04 10:12:00,
2013-06-04 06:23:00,64.0,63.0,29.89,WNW,303,0.0,0.0,98,0.00,,,-99.99,,2013-06-04 10:23:00,
2013-06-04 06:33:00,65.0,64.0,29.90,NW,304,0.0,0.0,98,0.00,,,-99.99,,2013-06-04 10:33:00,
2013-06-04 06:42:00,65.0,64.0,29.90,NW,304,0.0,0.0,98,0.00,,,-99.99,,2013-06-04 10:42:00,
2013-06-04 06:53:00,65.0,64.0,29.91,NW,304,0.0,0.0,98,0.00,,,-99.99,,2013-06-04 10:53:00,
2013-06-04 07:02:00,65.0,64.0,29.92,WNW,303,0.0,0.0,98,0.00,,,-99.99,,2013-06-04 11:02:00,
2013-06-04 07:12:00,65.0,64.0,29.92,WNW,303,0.0,0.0,98,0.00,,,-99.99,,2013-06-04 11:12:00,
2013-06-04 07:22:00,66.0,65.0,29.91,ENE,68,0.0,0.0,98,0.00,,,-99.99,,2013-06-04 11:22:00,
2013-06-04 07:32:00,66.0,66.0,29.92,NE,49,0.0,0.0,99,0.00,,,-99.99,,2013-06-04 11:32:00,
2013-06-04 07:42:00,66.0,66.0,29.92,NE,49,0.0,0.0,99,0.00,,,-99.99,,2013-06-04 11:42:00,
2013-06-04 07:52:00,67.0,67.0,29.93,NE,49,0.0,0.0,99,0.00,,,-99.99,,2013-06-04 11:52:00,
2013-06-04 08:02:00,67.0,67.0,29.93,North,360,0.0,0.0,99,0.00,,,-99.99,,2013-06-04 12:02:00,
2013-06-04 08:12:00,67.0,67.0,29.93,North,360,0.0,0.0,99,0.00,,,-99.99,,2013-06-04 12:12:00,
2013-06-04 08:22:00,68.0,68.0,29.93,NE,43,0.0,0.0,99,0.00,,,-99.99,,2013-06-04 12:22:00,
2013-06-04 08:32:00,69.0,68.0,29.93,NE,47,0.0,0.0,98,0.00,,,-99.99,,2013-06-04 12:32:00,
2013-06-04 08:42:00,69.0,68.0,29.93,NE,47,0.0,0.0,98,0.00,,,-99.99,,2013-06-04 12:42:00,
2013-06-04 08:53:00,69.0,68.0,29.94,NNE,28,0.0,5.0,96,0.00,,,-99.99,,2013-06-04 12:53:00,
2013-06-04 09:03:00,69.0,67.0,29.94,ENE,66,2.0,9.0,94,0.00,,,-99.99,,2013-06-04 13:03:00,
2013-06-04 09:12:00,69.0,67.0,29.94,ENE,66,2.0,9.0,94,0.00,,,-99.99,,2013-06-04 13:12:00,
2013-06-04 09:22:00,70.0,67.0,29.95,ENE,65,3.0,13.0,90,0.00,,,-99.99,,2013-06-04 13:22:00,
2013-06-04 09:32:00,71.0,66.0,29.96,North,360,1.0,5.0,85,0.00,,,-99.99,,2013-06-04 13:32:00,
2013-06-04 09:42:00,71.0,66.0,29.96,North,360,1.0,5.0,85,0.00,,,-99.99,,2013-06-04 13:42:00,
2013-06-04 09:52:00,71.0,66.0,29.96,ENE,75,2.0,5.0,84,0.00,,,-99.99,,2013-06-04 13:52:00,
2013-06-04 10:02:00,72.0,65.0,29.97,East,79,4.0,7.0,80,0.00,,,-99.99,,2013-06-04 14:02:00,
2013-06-04 10:12:00,72.0,65.0,29.97,East,79,4.0,7.0,80,0.00,,,-99.99,,2013-06-04 14:12:00,
2013-06-04 10:22:00,72.0,67.0,29.98,ESE,109,0.0,4.0,83,0.00,,,-99.99,,2013-06-04 14:22:00,
2013-06-04 10:32:00,71.0,65.0,29.99,NNW,333,0.0,3.0,82,0.00,,,-99.99,,2013-06-04 14:32:00,
2013-06-04 10:42:00,71.0,65.0,29.99,NNW,333,0.0,3.0,82,0.00,,,-99.99,,2013-06-04 14:42:00,
2013-06-04 10:52:00,71.0,66.0,29.99,East,91,0.0,4.0,83,0.00,,,-99.99,,2013-06-04 14:52:00,
2013-06-04 11:02:00,72.0,66.0,29.99,ESE,107,0.0,5.0,81,0.00,,,-99.99,,2013-06-04 15:02:00,
2013-06-04 11:12:00,72.0,66.0,29.99,ESE,107,0.0,5.0,81,0.00,,,-99.99,,2013-06-04 15:12:00,
2013-06-04 11:22:00,72.0,64.0,29.99,ENE,74,1.0,5.0,76,0.00,,,-99.99,,2013-06-04 15:22:00,
2013-06-04 11:33:00,74.0,64.0,29.99,ENE,70,2.0,11.0,71,0.00,,,-99.99,,2013-06-04 15:33:00,
2013-06-04 11:42:00,74.0,64.0,29.99,ENE,70,2.0,11.0,71,0.00,,,-99.99,,2013-06-04 15:42:00,
2013-06-04 11:53:00,75.0,65.0,30.00,NE,51,0.0,6.0,71,0.00,,,-99.99,,2013-06-04 15:53:00,
2013-06-04 12:03:00,76.0,63.0,30.00,NE,56,1.0,11.0,65,0.00,,,-99.99,,2013-06-04 16:03:00,
2013-06-04 12:13:00,76.0,63.0,30.00,NE,56,1.0,11.0,65,0.00,,,-99.99,,2013-06-04 16:13:00,
2013-06-04 12:23:00,77.0,61.0,30.00,NNW,348,2.0,18.0,57,0.00,,,-99.99,,2013-06-04 16:23:00,
2013-06-04 12:33:00,77.0,62.0,30.00,NNE,19,2.0,14.0,60,0.00,,,-99.99,,2013-06-04 16:33:00,
2013-06-04 12:42:00,77.0,62.0,30.00,NNE,19,2.0,14.0,60,0.00,,,-99.99,,2013-06-04 16:42:00,
2013-06-04 12:53:00,77.0,63.0,30.01,ENE,59,3.0,10.0,62,0.00,,,-99.99,,2013-06-04 16:53:00,
2013-06-04 13:03:00,77.0,62.0,30.00,NE,50,2.0,10.0,60,0.00,,,-99.99,,2013-06-04 17:03:00,
2013-06-04 13:12:00,77.0,62.0,30.00,NE,50,2.0,10.0,60,0.00,,,-99.99,,2013-06-04 17:12:00,
2013-06-04 13:23:00,76.0,61.0,30.00,ESE,113,1.0,7.0,59,0.00,,,-99.99,,2013-06-04 17:23:00,
2013-06-04 13:33:00,77.0,63.0,30.00,East,92,2.0,5.0,62,0.00,,,-99.99,,2013-06-04 17:33:00,
2013-06-04 13:42:00,77.0,63.0,30.00,East,92,2.0,5.0,62,0.00,,,-99.99,,2013-06-04 17:42:00,
2013-06-04 13:52:00,77.0,62.0,30.00,East,83,2.0,6.0,60,0.00,,,-99.99,,2013-06-04 17:52:00,
2013-06-04 14:02:00,77.0,62.0,30.00,NE,34,3.0,7.0,59,0.00,,,-99.99,,2013-06-04 18:02:00,
2013-06-04 14:12:00,77.0,62.0,30.00,NE,34,3.0,7.0,59,0.00,,,-99.99,,2013-06-04 18:12:00,
2013-06-04 14:22:00,78.0,62.0,29.99,SSE,160,1.0,4.0,59,0.00,,,-99.99,,2013-06-04 18:22:00,
2013-06-04 14:32:00,78.0,63.0,29.99,ESE,105,0.0,5.0,60,0.00,,,0.28,,2013-06-04 18:32:00,
2013-06-04 14:42:00,78.0,63.0,29.99,ESE,105,0.0,5.0,60,0.00,,,0.28,,2013-06-04 18:42:00,
2013-06-04 14:53:00,79.0,63.0,29.98,SE,141,0.0,6.0,58,0.00,,,0.28,,2013-06-04 18:53:00,
2013-06-04 15:02:00,79.0,62.0,29.98,ENE,73,1.0,5.0,56,0.00,,,0.28,,2013-06-04 19:02:00,
2013-06-04 15:12:00,79.0,62.0,29.98,ENE,73,1.0,5.0,56,0.00,,,0.28,,2013-06-04 19:12:00,
2013-06-04 15:22:00,80.0,65.0,29.98,ESE,120,0.0,10.0,60,0.00,,,0.28,,2013-06-04 19:22:00,
2013-06-04 15:32:00,80.0,65.0,29.98,SSE,153,0.0,7.0,60,0.00,,,0.28,,2013-06-04 19:32:00,
2013-06-04 15:42:00,80.0,65.0,29.98,SSE,153,0.0,7.0,60,0.00,,,0.28,,2013-06-04 19:42:00,
2013-06-04 15:52:00,80.0,63.0,29.98,North,353,0.0,6.0,56,0.00,,,0.28,,2013-06-04 19:52:00,
2013-06-04 16:03:00,81.0,65.0,29.97,SSE,151,1.0,7.0,58,0.00,,,0.28,,2013-06-04 20:03:00,
2013-06-04 16:12:00,81.0,65.0,29.97,SSE,151,1.0,7.0,58,0.00,,,0.28,,2013-06-04 20:12:00,
2013-06-04 16:22:00,81.0,64.0,29.97,South,185,2.0,7.0,57,0.00,,,0.28,,2013-06-04 20:22:00,
2013-06-04 16:32:00,82.0,63.0,29.97,East,95,1.0,4.0,53,0.00,,,0.28,,2013-06-04 20:32:00,
2013-06-04 16:42:00,82.0,63.0,29.97,East,95,1.0,4.0,53,0.00,,,0.28,,2013-06-04 20:42:00,
2013-06-04 16:53:00,80.0,63.0,29.97,ENE,63,0.0,6.0,57,0.00,,,0.28,,2013-06-04 20:53:00,
2013-06-04 17:02:00,80.0,64.0,29.98,SSE,152,0.0,5.0,58,0.00,,,0.28,,2013-06-04 21:02:00,
2013-06-04 17:12:00,80.0,64.0,29.98,SSE,152,0.0,5.0,58,0.00,,,0.28,,2013-06-04 21:12:00,
2013-06-04 17:22:00,81.0,64.0,29.98,ENE,70,0.0,3.0,57,0.00,,,0.28,,2013-06-04 21:22:00,
2013-06-04 17:33:00,81.0,64.0,29.98,NW,315,0.0,4.0,57,0.00,,,0.28,,2013-06-04 21:33:00,
2013-06-04 17:42:00,81.0,64.0,29.98,NW,315,0.0,4.0,57,0.00,,,0.28,,2013-06-04 21:42:00,
2013-06-04 17:53:00,81.0,63.0,29.96,WSW,257,1.0,7.0,54,0.00,,,0.28,,2013-06-04 21:53:00,
2013-06-04 18:02:00,81.0,63.0,29.96,NE,51,1.0,7.0,55,0.00,,,0.28,,2013-06-04 22:02:00,
2013-06-04 18:13:00,81.0,63.0,29.96,NE,51,1.0,7.0,55,0.00,,,0.28,,2013-06-04 22:13:00,
2013-06-04 18:22:00,80.0,63.0,29.97,ENE,76,0.0,6.0,56,0.00,,,0.28,,2013-06-04 22:22:00,
2013-06-04 18:32:00,80.0,63.0,29.96,ENE,75,0.0,6.0,56,0.00,,,0.28,,2013-06-04 22:32:00,
2013-06-04 18:42:00,80.0,63.0,29.96,ENE,75,0.0,6.0,56,0.00,,,0.28,,2013-06-04 22:42:00,
2013-06-04 18:52:00,80.0,62.0,29.96,North,354,0.0,3.0,55,0.00,,,0.28,,2013-06-04 22:52:00,
2013-06-04 19:02:00,79.0,62.0,29.96,NE,52,0.0,6.0,57,0.00,,,0.28,,2013-06-04 23:02:00,
2013-06-04 19:12:00,79.0,62.0,29.96,NE,52,0.0,6.0,57,0.00,,,0.28,,2013-06-04 23:12:00,
2013-06-04 19:22:00,79.0,62.0,29.96,NE,56,0.0,2.0,57,0.00,,,0.28,,2013-06-04 23:22:00,
2013-06-04 19:32:00,78.0,62.0,29.97,ENE,70,0.0,7.0,59,0.00,,,0.28,,2013-06-04 23:32:00,
2013-06-04 19:42:00,78.0,62.0,29.97,ENE,70,0.0,7.0,59,0.00,,,0.28,,2013-06-04 23:42:00,
2013-06-04 19:52:00,78.0,63.0,29.97,ENE,73,0.0,3.0,60,0.00,,,0.28,,2013-06-04 23:52:00,
2013-06-04 20:02:00,77.0,63.0,29.97,East,83,0.0,0.0,62,0.00,,,0.28,,2013-06-05 00:02:00,
2013-06-04 20:12:00,77.0,63.0,29.97,East,83,0.0,0.0,62,0.00,,,0.28,,2013-06-05 00:12:00,
2013-06-04 20:22:00,75.0,62.0,29.98,East,83,0.0,0.0,64,0.00,,,0.28,,2013-06-05 00:22:00,
2013-06-04 20:33:00,75.0,63.0,29.98,East,83,0.0,0.0,67,0.00,,,0.01,,2013-06-05 00:33:00,
2013-06-04 20:42:00,75.0,63.0,29.98,East,83,0.0,0.0,67,0.00,,,0.01,,2013-06-05 00:42:00,
2013-06-04 20:52:00,74.0,63.0,29.98,East,83,0.0,0.0,69,0.00,,,0.01,,2013-06-05 00:52:00,
2013-06-04 21:02:00,73.0,64.0,29.99,East,83,0.0,0.0,73,0.00,,,0.01,,2013-06-05 01:02:00,
2013-06-04 21:12:00,73.0,64.0,29.99,East,83,0.0,0.0,73,0.00,,,0.01,,2013-06-05 01:12:00,
2013-06-04 21:22:00,72.0,63.0,30.00,East,83,0.0,0.0,73,0.00,,,0.01,,2013-06-05 01:22:00,
2013-06-04 21:32:00,71.0,63.0,30.01,East,83,0.0,0.0,76,0.00,,,0.01,,2013-06-05 01:32:00,
2013-06-04 21:42:00,71.0,63.0,30.01,East,83,0.0,0.0,76,0.00,,,0.01,,2013-06-05 01:42:00,
2013-06-04 21:52:00,70.0,62.0,30.01,East,83,0.0,0.0,76,0.00,,,0.01,,2013-06-05 01:52:00,
2013-06-04 22:02:00,70.0,63.0,30.01,East,83,0.0,0.0,79,0.00,,,0.01,,2013-06-05 02:02:00,
2013-06-04 22:12:00,70.0,63.0,30.01,East,83,0.0,0.0,79,0.00,,,0.01,,2013-06-05 02:12:00,
2013-06-04 22:22:00,69.0,63.0,30.01,East,83,0.0,0.0,81,0.00,,,0.01,,2013-06-05 02:22:00,
2013-06-04 22:32:00,69.0,63.0,30.02,East,83,0.0,0.0,82,0.00,,,0.01,,2013-06-05 02:32:00,
2013-06-04 22:42:00,69.0,63.0,30.03,East,83,0.0,0.0,82,0.00,,,0.01,,2013-06-05 02:42:00,
2013-06-04 22:52:00,69.0,63.0,30.03,East,83,0.0,0.0,82,0.00,,,0.01,,2013-06-05 02:52:00,
2013-06-04 23:02:00,69.0,63.0,30.03,East,83,0.0,0.0,82,0.00,,,0.01,,2013-06-05 03:02:00,
2013-06-04 23:12:00,69.0,63.0,30.03,East,85,0.0,0.0,81,0.00,,,0.01,,2013-06-05 03:12:00,
2013-06-04 23:22:00,69.0,63.0,30.03,East,85,0.0,0.0,81,0.00,,,0.01,,2013-06-05 03:22:00,
2013-06-04 23:33:00,69.0,62.0,30.03,East,85,0.0,0.0,79,0.00,,,0.01,,2013-06-05 03:33:00,
2013-06-04 23:43:00,69.0,62.0,30.03,East,85,0.0,0.0,79,0.00,,,0.01,,2013-06-05 03:43:00,
2013-06-04 23:53:00,69.0,62.0,30.03,East,92,0.0,0.0,78,0.00,,,0.01,,2013-06-05 03:53:00,